Weather History for Martinsville, VA

Change the Weather History Date:

Wednesday, February 27, 2013

  Actual Average (KGSO) Record (KGSO)
Temperature  
Mean Temperature 51 °F 45 °F  
Max Temperature 60 °F 56 °F 78 °F (2011)
Min Temperature 42 °F 35 °F 3 °F (1963)
Degree Days  
Heating Degree Days 14 20  
Month to date heating degree days 613  
Since 1 July heating degree days 2836  
Cooling Degree Days 0 0  
Month to date cooling degree days 0  
Year to date cooling degree days 0  
Growing Degree Days 1 (Base 50)    
Moisture  
Dew Point 37 °F    
Average Humidity 60    
Maximum Humidity 100    
Minimum Humidity 39    
Precipitation  
Precipitation 0.07 in 0.12 in 1.42 in (1982)
Month to date precipitation 2.85  
Year to date precipitation 5.91  
Snow  
Snow 0.00 in 0.10 in 8.00 in (1924)
Month to date snowfall 2.3  
Since 1 July snowfall 6.6  
Snow Depth -    
Sea Level Pressure  
Sea Level Pressure 29.72 in    
Wind  
Wind Speed 3 mph (West)    
Max Wind Speed 14 mph    
Max Gust Speed 17 mph    
Visibility 8 miles    
Events Rain    
T = Trace of Precipitation, MM = Missing Value Source: NWS Daily Summary

Daily Weather History Graph

Daily Weather History Graph

Search for Another Location

Airport:

Trip Planner

Search our weather history database for the weather conditions in past years. The results will help you decide how hot, cold, wet, or windy it might be!

Date:

Astronomy

Feb. 27, 2013 Rise Set
Actual Time 6:53 AM EST 6:12 PM EST
Civil Twilight 6:27 AM EST 6:38 PM EST
Nautical Twilight 5:57 AM EST 7:08 PM EST
Astronomical Twilight 5:27 AM EST 7:38 PM EST
Moon 8:27 PM EST (2/27) 7:31 AM EST (2/27)
Length of Visible Light 12h 11m
Length of Day
11h 19m
Waning Gibbous, 96% of the Moon is Illuminated
Feb 27
Waning Gibbous
Mar 4
Last Quarter
Mar 11
New
Mar 19
First Quarter
Mar 27
Full

Hourly Weather History & Observations

Time (EST) Temp. Windchill Dew Point Humidity Pressure Visibility Wind Dir Wind Speed Gust Speed Precip Events Conditions
12:15 AM - - - N/A% 29.65 in 10.0 mi Calm Calm - N/A   Overcast
12:35 AM - - - N/A% 29.63 in 5.0 mi Calm Calm - N/A   Haze
12:55 AM - - - N/A% 29.64 in 3.0 mi Calm Calm - N/A   Overcast
1:15 AM - - - N/A% 29.64 in 2.5 mi Calm Calm - N/A   Overcast
1:35 AM - - - N/A% 29.64 in 3.0 mi Calm Calm - N/A   Overcast
1:55 AM - - - N/A% 29.65 in 1.8 mi WSW 4.6 mph - N/A   Overcast
2:15 AM - - - N/A% 29.64 in 2.0 mi West 3.5 mph - N/A   Overcast
2:35 AM - - - N/A% 29.63 in 3.0 mi Calm Calm - N/A   Overcast
3:15 AM - - - N/A% 29.63 in 7.0 mi SW 3.5 mph - N/A   Overcast
3:55 AM - - - N/A% 29.64 in 5.0 mi WSW 3.5 mph - N/A   Haze
4:15 AM - - - N/A% 29.65 in 5.0 mi Calm Calm - N/A   Haze
4:35 AM - - - N/A% 29.65 in 5.0 mi WSW 5.8 mph - N/A   Haze
4:55 AM - - - N/A% 29.66 in 5.0 mi WSW 3.5 mph - N/A   Haze
5:15 AM - - - N/A% 29.67 in 5.0 mi WSW 3.5 mph - N/A   Haze
5:35 AM - - - N/A% 29.68 in 5.0 mi WSW 4.6 mph - N/A   Haze
5:55 AM - - - N/A% 29.68 in 5.0 mi West 3.5 mph - N/A   Haze
6:15 AM - - - N/A% 29.69 in 5.0 mi WSW 4.6 mph - N/A   Haze
6:35 AM - - - N/A% 29.70 in 7.0 mi WNW 3.5 mph - N/A   Scattered Clouds
6:55 AM - - - N/A% 29.70 in 5.0 mi WSW 3.5 mph - N/A   Haze
7:15 AM - - - N/A% 29.71 in 5.0 mi Calm Calm - N/A   Haze
7:35 AM - - - N/A% 29.73 in 7.0 mi Calm Calm - N/A   Clear
7:55 AM - - - N/A% 29.74 in 10.0 mi Calm Calm - N/A   Clear
8:35 AM 45.3 °F 42.3 °F 42.4 °F 90% 29.76 in 10.0 mi WSW 5.8 mph - N/A   Clear
8:55 AM 47.1 °F - 39.7 °F 76% 29.76 in 10.0 mi WSW 6.9 mph - N/A   Clear
9:15 AM 48.7 °F - 39.0 °F 69% 29.76 in 10.0 mi WSW 3.5 mph - N/A   Clear
9:35 AM 50.4 °F - 37.4 °F 61% 29.76 in 10.0 mi West 8.1 mph - N/A   Clear
9:55 AM 50.9 °F - 35.2 °F 55% 29.77 in 10.0 mi NW 10.4 mph - N/A   Mostly Cloudy
10:15 AM 51.1 °F - 35.6 °F 55% 29.78 in 10.0 mi West 10.4 mph - N/A   Overcast
10:35 AM 50.7 °F - 34.9 °F 55% 29.78 in 10.0 mi West 8.1 mph 16.1 mph N/A   Overcast
10:55 AM 52.7 °F - 34.9 °F 51% 29.79 in 10.0 mi WNW 11.5 mph 17.3 mph N/A   Overcast
11:15 AM 51.6 °F - 35.6 °F 54% 29.78 in 10.0 mi NW 6.9 mph 17.3 mph N/A   Overcast
11:35 AM 54.9 °F - 36.3 °F 50% 29.79 in 10.0 mi NW 11.5 mph - N/A   Overcast
11:55 AM 53.2 °F - 34.5 °F 49% 29.79 in 10.0 mi WNW 6.9 mph 17.3 mph N/A   Overcast
12:15 PM 54.9 °F - 36.0 °F 49% 29.78 in 10.0 mi NNW 13.8 mph - N/A   Overcast
12:35 PM 52.0 °F - 34.0 °F 50% 29.78 in 10.0 mi NW 5.8 mph - N/A   Overcast
12:55 PM 54.7 °F - 34.9 °F 47% 29.77 in 10.0 mi WSW 5.8 mph - N/A   Mostly Cloudy
1:15 PM 55.4 °F - 35.1 °F 46% 29.77 in 10.0 mi NW 6.9 mph - N/A   Mostly Cloudy
1:35 PM 57.2 °F - 34.2 °F 42% 29.76 in 10.0 mi WSW 8.1 mph - N/A   Mostly Cloudy
1:55 PM 55.4 °F - 34.7 °F 46% 29.74 in 10.0 mi NNW 3.5 mph - N/A   Mostly Cloudy
2:15 PM 56.8 °F - 34.3 °F 43% 29.73 in 10.0 mi Calm Calm - N/A   Mostly Cloudy
2:35 PM 59.0 °F - 35.1 °F 41% 29.73 in 10.0 mi WSW 5.8 mph - N/A   Scattered Clouds
2:55 PM 57.9 °F - 34.7 °F 42% 29.72 in 10.0 mi SW 4.6 mph - N/A   Scattered Clouds
3:15 PM 59.0 °F - 35.8 °F 42% 29.72 in 10.0 mi NNW 4.6 mph - N/A   Mostly Cloudy
3:35 PM 60.1 °F - 35.2 °F 39% 29.72 in 10.0 mi West 6.9 mph - N/A   Mostly Cloudy
3:55 PM 60.1 °F - 35.2 °F 39% 29.72 in 10.0 mi WSW 4.6 mph - N/A   Scattered Clouds
4:15 PM 59.0 °F - 34.3 °F 40% 29.72 in 10.0 mi WSW 6.9 mph - N/A   Clear
4:35 PM 57.6 °F - 35.2 °F 43% 29.72 in 10.0 mi SW 3.5 mph - N/A   Clear
4:55 PM 57.4 °F - 36.0 °F 45% 29.72 in 10.0 mi SW 3.5 mph - N/A   Scattered Clouds
5:15 PM 57.2 °F - 36.1 °F 45% 29.72 in 10.0 mi SSW 8.1 mph - N/A   Scattered Clouds
5:35 PM 56.7 °F - 36.5 °F 47% 29.72 in 10.0 mi SSW 9.2 mph - N/A   Scattered Clouds
5:55 PM 54.9 °F - 36.7 °F 50% 29.72 in 10.0 mi SW 3.5 mph - N/A   Scattered Clouds
6:15 PM 53.4 °F - 37.2 °F 54% 29.73 in 10.0 mi Calm Calm - N/A   Clear
6:35 PM 51.8 °F - 37.4 °F 58% 29.73 in 10.0 mi Calm Calm - N/A   Clear
6:55 PM 50.7 °F - 37.8 °F 61% 29.73 in 10.0 mi Calm Calm - N/A   Clear
7:15 PM 48.6 °F - 37.8 °F 66% 29.73 in 10.0 mi Calm Calm - N/A   Clear
7:35 PM 45.1 °F - 37.8 °F 75% 29.73 in 10.0 mi Calm Calm - N/A   Clear
7:55 PM 43.2 °F 41.5 °F 38.1 °F 82% 29.73 in 10.0 mi NW 3.5 mph - N/A   Mostly Cloudy
8:15 PM 43.9 °F 42.3 °F 38.7 °F 82% 29.73 in 10.0 mi SE 3.5 mph - N/A   Overcast
8:35 PM 42.4 °F - 38.3 °F 85% 29.73 in 10.0 mi Calm Calm - N/A   Overcast
8:55 PM 45.1 °F - 38.8 °F 79% 29.73 in 10.0 mi Calm Calm - N/A   Overcast
9:15 PM 46.0 °F 41.0 °F 41.0 °F 83% 29.77 in 7.0 mi WNW 10.4 mph - 0.02 in Rain Rain
9:35 PM 45.7 °F 44.4 °F 45.0 °F 97% 29.76 in 10.0 mi West 3.5 mph - 0.06 in Rain Light Rain
9:55 PM 45.3 °F - 44.8 °F 98% 29.74 in 10.0 mi Calm Calm - 0.06 in   Overcast
10:15 PM 44.1 °F - 44.1 °F 100% 29.74 in 10.0 mi Calm Calm - 0.01 in   Overcast
10:35 PM - - - N/A% 29.74 in 2.0 mi Calm Calm - 0.01 in   Mostly Cloudy
10:55 PM - - - N/A% 29.74 in 1.8 mi Calm Calm - 0.01 in   Mostly Cloudy
11:15 PM - - - N/A% 29.74 in 0.8 mi Calm Calm - N/A   Overcast
11:35 PM - - - N/A% 29.74 in 10.0 mi WNW 4.6 mph - N/A   Overcast
11:55 PM 43.0 °F 39.5 °F 38.7 °F 85% 29.73 in 10.0 mi NW 5.8 mph - N/A   Overcast